This is the latest recevied weather packets stored in our database for station/object HA3YA-WX. If no packets are shown the sender has not sent any weather packets the latest 10 day(s).
| Time | Temp. | Humidity | Pressure | Rain* | Wind** | Luminosity | Snow |
|---|---|---|---|---|---|---|---|
| 1777774292 | 9.44° C | 54% | 1007.3 hPa | - | - | - | - |
| 1777773693 | 10° C | 54% | 1007.3 hPa | - | - | - | - |
| 1777773092 | 10° C | 53% | 1007.3 hPa | - | - | - | - |
| 1777768892 | 10.56° C | 53% | 1007.3 hPa | - | - | - | - |
| 1777768292 | 10.56° C | 52% | 1007.3 hPa | - | - | - | - |
| 1777767692 | 10.56° C | 52% | 1007.3 hPa | - | - | - | - |
| 1777767093 | 11.11° C | 52% | 1007 hPa | - | - | - | - |
| 1777766493 | 11.11° C | 51% | 1007 hPa | - | - | - | - |
| 1777765892 | 11.67° C | 51% | 1007 hPa | - | - | - | - |
| 1777765293 | 11.67° C | 51% | 1007.2 hPa | - | - | - | - |
| 1777764692 | 11.67° C | 51% | 1007.2 hPa | - | - | - | - |
| 1777763493 | 12.22° C | 51% | 1007.2 hPa | - | - | - | - |
| 1777761693 | 12.22° C | 51% | 1007.2 hPa | - | - | - | - |
| 1777761093 | 12.22° C | 51% | 1007.2 hPa | - | - | - | - |
| 1777760492 | 12.22° C | 51% | 1007.1 hPa | - | - | - | - |
| 1777759892 | 12.22° C | 51% | 1007.1 hPa | - | - | - | - |
| 1777759293 | 12.22° C | 51% | 1007.1 hPa | - | - | - | - |
| 1777757493 | 12.78° C | 51% | 1007.1 hPa | - | - | - | - |
| 1777756893 | 13.33° C | 51% | 1007 hPa | - | - | - | - |
| 1777755693 | 14.44° C | 51% | 1006.9 hPa | - | - | - | - |
| 1777753893 | 15° C | 51% | 1006 hPa | - | - | - | - |
| 1777752692 | 15.56° C | 51% | 1006 hPa | - | - | - | - |
| 1777752092 | 16.11° C | 51% | 1006 hPa | - | - | - | - |
| 1777751492 | 16.11° C | 50% | 1006.8 hPa | - | - | - | - |
| 1777750293 | 16.67° C | 49% | 1006.7 hPa | - | - | - | - |
* Rain since midnight (hover to see other rain measurements)
** Current wind speed in m/s (hover to see current wind gust speed)